Location: Bishopstone
(51.0167°N, 1.9000°W)
Time: 05:39:21
(UTC+00:00)

NOSS 3-3 (C) - Pass Details

Date: 16 September 2019
Orbit: 849 x 1364 km, 63.4° (Epoch: 08 October)

Event Time Altitude Azimuth Distance (km) Brightness Sun altitude
Rises 19:38:27 0° 220° (SW) 3,481 7.2 -12.8°
Reaches altitude 10° 19:40:49 10° 220° (SW) 2,587 6.5 -13.1°
Maximum altitude 19:46:51 87° 131° (SE) 987 4.0 -14.0°
Drops below altitude 10° 19:53:42 10° 45° (NE) 2,924 6.3 -15.0°
Sets 19:56:32 0° 45° (NE) 3,964 7.0 -15.4°
